Wind_Gust
16 17 17 18 18 15 16 20 18 17 17 17 18 17 16 16 17 16 16 17 16 17 17 18 19 18 18 17 17 16 15 14 13 13 13 13 12 11 10 9 10 10 9 9 9 8 9 9 8 8 7 8 8 8 9 10 9 9 10 11 12 12 14 17 23 29 23 13 18 21 20 20 23 19 22 20 20 19 15 18 18 16 17 17 16
18 17 17 17 19 18 19 18 17 17 17 17 18 18 17 17 16 15 16 17 18 19 20 18 18 19 19 18 17 17 16 16 15 14 15 15 13 11 9 9 9 10 9 11 10 9 9 10 11 10 9 10 9 11 10 11 11 11 11 12 12 13 12 17 20 24 30 17 18 17 19 17 24 18 18 20 20 18 21 22 20 18 16 17 17
15 15 17 18 20 20 20 20 19 17 18 18 19 19 17 17 17 18 18 18 17 18 18 19 20 20 19 19 19 18 18 17 15 14 14 14 14 12 10 9 9 9 10 11 12 11 11 11 12 11 10 11 11 11 10 11 12 12 13 14 14 14 14 15 19 23 26 28 19 23 20 19 19 22 20 20 22 23 23 22 22 20 19 17 18
11 14 16 18 19 18 19 19 17 18 18 18 18 18 17 16 18 19 18 16 19 16 17 19 19 20 20 20 20 19 19 17 16 15 15 14 13 13 12 10 8 8 9 10 11 11 12 13 12 12 12 13 13 12 12 11 12 12 12 13 14 15 15 14 16 21 23 29 24 23 23 23 24 21 21 21 23 23 23 23 22 23 21 19 18
11 16 18 19 18 18 19 19 18 19 20 18 18 17 16 16 16 19 17 17 17 17 16 17 19 21 21 21 21 20 19 18 17 16 14 13 13 12 11 9 8 9 8 9 6 11 12 12 13 13 13 14 14 14 13 13 15 15 14 14 14 14 14 15 17 18 22 26 29 24 22 23 24 23 21 23 22 21 20 23 23 22 21 19 18
12 14 17 19 19 18 19 18 19 19 18 16 16 16 16 16 17 18 20 21 18 17 19 18 20 21 21 20 20 20 18 17 16 15 15 14 13 11 10 8 9 10 11 11 12 12 12 14 14 14 15 15 15 15 15 15 16 16 16 17 17 15 15 16 17 18 21 26 27 30 21 24 24 23 21 20 21 23 21 21 21 22 21 19 17
14 11 12 16 17 18 19 19 18 17 17 17 15 16 17 17 17 18 17 16 18 17 17 19 17 19 19 19 20 19 18 16 16 15 14 13 12 11 9 8 9 9 10 12 13 13 14 14 14 15 15 16 16 16 16 16 16 16 17 17 17 17 18 18 18 20 22 25 26 26 27 22 21 24 20 19 22 23 24 23 23 20 19 18 19
14 14 12 13 16 19 19 17 16 16 15 15 15 16 17 17 20 18 15 18 17 18 20 20 17 16 18 18 18 17 17 17 16 15 13 12 10 9 8 8 10 11 11 13 13 14 15 15 16 16 16 17 17 17 17 18 18 19 19 19 19 19 19 18 19 20 20 21 23 25 23 24 22 20 22 20 21 20 19 20 21 20 19 18 19
15 14 12 12 14 17 17 18 17 16 14 15 16 17 19 19 16 18 21 22 20 17 14 16 17 17 17 17 18 17 17 16 15 14 13 12 10 9 8 9 9 11 13 13 14 15 15 15 16 16 18 15 15 16 15 14 22 23 20 20 21 22 22 22 22 21 21 21 22 22 24 23 22 20 19 19 18 19 20 20 24 23 23 22 21
16 15 14 13 13 15 17 16 17 17 16 17 19 19 19 19 20 19 18 17 15 16 15 14 17 18 18 18 18 17 15 13 10 9 5 11 10 9 8 7 8 10 12 13 14 15 15 16 16 14 14 16 17 16 16 16 16 21 24 22 23 23 24 24 25 24 24 24 22 21 22 22 22 19 20 20 20 19 20 20 23 22 22 23 23
17 16 17 16 15 15 15 16 16 17 17 17 17 18 19 18 18 17 17 17 19 19 19 19 17 17 21 20 19 16 15 14 12 10 9 7 9 9 7 7 8 9 11 13 15 16 16 17 17 15 16 14 19 14 15 16 16 17 18 18 18 26 25 27 26 24 26 26 23 23 23 23 22 21 20 21 19 19 19 20 21 21 22 22 24
17 18 17 17 16 16 14 15 17 18 17 18 19 19 16 16 18 18 19 20 18 17 17 15 15 14 16 19 17 15 14 10 12 11 10 9 5 9 8 6 7 9 10 12 14 16 17 18 17 16 17 18 21 23 19 15 15 16 17 18 18 19 19 27 27 26 24 27 27 25 26 26 24 21 20 20 22 21 20 19 19 20 23 23 23
16 17 18 18 18 17 15 15 15 17 17 18 17 16 17 17 18 20 20 16 16 19 18 18 18 17 17 18 16 16 16 13 12 11 9 9 8 6 8 7 8 9 11 12 14 15 17 18 18 17 18 15 19 20 21 23 16 16 16 18 20 21 21 22 22 29 29 31 28 30 27 27 28 24 20 22 20 22 22 22 20 20 21 23 23
16 18 18 18 18 18 18 16 16 16 15 16 16 16 16 18 17 19 19 20 21 19 20 21 20 19 17 18 16 16 17 14 13 11 9 8 8 7 8 8 9 10 11 12 13 14 16 18 20 20 19 19 20 20 20 22 23 24 23 24 24 21 17 20 23 25 27 32 32 34 28 26 30 24 23 21 23 24 25 25 23 24 24 25 23
18 17 18 19 18 17 17 17 18 17 15 14 14 15 16 15 16 16 18 20 21 22 22 19 16 14 14 14 15 14 14 13 12 11 9 9 9 6 9 8 9 10 11 11 13 14 15 17 18 20 20 20 20 19 22 23 25 26 26 26 27 27 27 26 25 24 25 26 31 32 31 29 29 27 26 25 24 23 22 22 21 21 24 24 28
18 18 19 19 18 17 17 17 18 17 16 14 14 15 16 19 19 16 15 14 14 16 14 17 18 17 15 15 15 16 15 14 12 12 10 9 9 10 9 9 10 11 12 12 13 14 15 16 18 20 20 20 16 12 15 23 25 27 28 27 27 26 26 18 19 20 27 30 30 30 29 28 19 26 26 27 28 26 25 27 25 23 25 29 30
19 19 20 19 19 18 18 17 18 18 16 15 16 16 17 17 15 17 17 16 18 18 20 17 17 18 17 14 13 12 12 13 12 11 10 9 7 10 9 10 11 12 13 13 14 15 15 16 18 21 21 21 15 12 12 13 26 29 30 30 29 28 29 25 18 16 18 21 23 24 24 24 23 20 18 19 23 25 30 32 31 26 29 33 29
19 20 20 19 19 19 19 18 18 19 18 19 16 16 15 14 16 18 22 21 20 22 19 16 13 15 15 14 13 14 12 11 11 9 9 10 7 10 10 11 12 14 15 14 15 16 16 16 19 22 23 23 14 12 12 17 27 29 29 31 31 31 29 25 26 24 16 17 20 21 22 22 21 23 23 22 21 17 30 38 29 25 31 29 31
19 19 19 19 20 20 19 18 19 19 19 19 17 18 17 17 15 13 15 14 16 16 15 16 14 12 13 14 10 13 11 11 12 11 10 10 11 11 12 13 14 15 16 17 15 17 19 15 17 20 22 22 17 16 15 19 29 28 29 31 32 31 29 26 27 27 26 25 27 26 28 24 27 30 30 24 24 23 34 37 32 32 35 29 28
19 19 20 20 20 20 19 18 20 21 22 16 15 16 16 15 15 15 16 19 19 16 13 14 15 12 11 11 12 12 10 9 12 10 10 10 9 12 12 14 16 17 17 19 20 19 20 21 17 14 17 18 17 17 16 16 26 30 31 33 33 34 28 28 28 28 28 28 28 27 28 27 27 26 26 27 28 27 32 33 33 34 34 30 29
19 20 20 20 21 20 19 18 21 21 21 15 14 15 15 17 15 14 16 14 16 14 13 12 12 11 10 10 8 9 8 9 10 7 7 9 9 8 14 15 16 18 19 20 21 23 23 22 23 18 14 14 15 16 17 18 19 31 31 32 32 31 26 32 32 23 32 30 30 30 29 27 28 29 29 30 31 30 30 29 30 31 31 30 31
20 21 22 22 20 20 19 18 20 20 16 13 19 18 15 14 14 17 20 18 17 16 13 12 11 8 6 7 8 8 6 6 8 6 7 8 9 8 13 15 15 19 21 21 22 23 23 25 29 21 15 15 16 18 21 23 24 33 34 26 26 25 35 35 35 33 33 31 30 29 29 29 28 28 28 30 30 31 31 31 29 31 32 33 33
23 24 24 24 22 20 19 18 19 15 17 19 21 19 17 18 14 13 16 16 15 14 13 11 10 9 7 8 9 11 11 10 5 10 9 9 10 11 11 14 11 19 20 22 22 24 26 29 26 15 14 17 22 25 26 27 26 33 27 25 25 26 28 34 31 30 29 31 31 31 30 30 30 29 28 27 28 28 30 28 27 28 29 30 30
23 22 22 22 21 19 17 18 15 16 18 17 16 18 16 18 15 14 14 13 12 12 9 9 9 10 11 11 12 12 10 8 4 6 11 10 11 12 13 14 12 16 20 23 25 29 30 26 25 21 25 27 27 27 26 26 35 28 28 28 28 27 36 33 30 28 27 28 29 32 32 31 31 32 31 29 27 26 26 25 26 26 28 27 27
22 21 21 20 19 18 16 16 17 19 20 23 23 21 17 14 16 11 12 12 12 13 10 10 12 12 10 8 7 6 7 6 8 7 8 9 11 11 12 11 12 13 22 24 25 27 21 22 23 24 24 26 27 28 25 25 25 24 25 24 26 31 29 28 28 26 27 27 29 30 32 32 32 31 29 28 26 25 25 24 24 25 26 28 28
23 21 20 18 18 16 17 16 15 15 15 16 18 18 18 17 16 11 9 10 10 10 11 11 10 9 8 6 6 7 8 8 10 10 7 6 7 8 10 12 14 15 18 24 17 19 20 20 22 23 22 24 29 27 27 29 21 23 25 27 29 29 27 27 25 26 27 27 28 30 31 30 30 29 25 25 26 26 23 24 23 23 25 26 27
23 20 20 18 16 20 22 21 19 17 17 14 14 15 14 14 15 15 13 13 11 9 9 8 8 8 8 7 7 8 10 11 11 12 13 14 15 15 15 19 12 13 20 23 18 24 27 25 25 22 22 22 24 23 25 24 26 26 25 24 24 24 24 25 25 25 25 28 28 30 30 29 27 23 25 24 25 25 24 22 23 24 23 26 27
24 21 18 16 18 21 22 19 23 20 18 19 16 13 12 13 15 17 16 15 15 12 10 8 8 8 7 6 6 7 9 11 12 14 15 15 16 17 20 20 21 22 23 23 26 27 28 18 20 23 23 23 24 23 23 23 24 23 25 25 26 24 23 19 20 27 28 29 29 29 28 26 26 25 23 23 25 24 22 21 22 24 22 22 26
22 19 18 20 19 18 24 23 21 22 22 20 20 20 19 14 13 11 8 13 15 13 12 10 9 8 9 9 8 8 10 11 13 6 12 7 13 19 19 20 21 21 17 18 26 24 22 23 21 23 23 23 23 24 24 25 23 23 24 25 25 25 24 23 23 24 25 23 23 23 23 23 24 22 20 20 22 23 19 20 21 23 22 22 24
22 19 18 18 19 20 20 20 19 20 19 18 19 15 11 11 8 14 9 4 8 8 6 8 9 10 11 12 11 9 8 11 5 6 7 8 9 9 10 12 14 18 17 18 19 22 21 22 23 24 24 24 25 25 25 24 25 25 23 17 23 23 24 24 24 24 21 21 21 21 22 20 22 21 21 23 21 19 19 17 22 20 22 22 22
18 18 18 20 22 24 24 21 20 18 17 16 17 15 14 15 17 12 9 11 11 16 17 16 13 8 13 13 11 3 3 2 5 7 8 9 10 11 12 14 15 16 17 22 20 20 22 23 24 24 24 24 24 25 25 25 24 25 24 22 22 24 22 23 23 21 20 20 20 22 22 23 23 22 23 22 21 20 17 17 19 19 21 21 22
21 20 21 19 21 19 20 19 18 17 15 16 16 17 18 16 12 17 17 11 12 13 14 14 13 12 10 10 8 12 7 6 7 8 9 10 12 13 14 15 15 16 17 15 18 20 21 22 23 24 24 24 25 24 25 25 25 25 25 24 23 20 21 22 20 20 20 21 22 21 22 22 22 21 20 19 19 20 20 19 20 20 20 21 21
22 20 21 23 22 22 21 19 17 16 16 17 17 19 21 19 16 15 18 16 15 13 12 13 14 13 11 9 8 7 4 5 7 6 7 9 11 13 15 13 13 15 15 16 18 20 21 22 23 23 24 24 25 24 24 23 24 25 25 25 24 23 22 22 20 21 21 22 22 22 21 20 18 18 17 17 18 20 19 20 19 18 18 20 20
21 22 22 23 22 19 19 19 19 20 17 18 20 21 22 21 20 20 19 17 18 15 11 10 11 12 9 8 9 8 8 6 6 7 8 10 11 13 13 15 11 11 10 18 19 20 21 22 23 24 24 23 24 24 24 24 25 25 25 24 24 24 24 24 23 22 21 21 21 19 18 18 17 17 17 16 17 17 19 19 19 20 20 22 21
22 20 18 16 19 20 18 17 18 18 18 17 18 18 18 17 17 19 18 18 17 17 15 13 6 3 11 8 8 9 8 7 7 6 7 8 10 12 10 16 20 21 21 20 21 22 23 23 24 24 23 23 23 23 24 23 24 25 26 26 24 24 22 23 23 21 22 21 20 19 17 17 17 16 15 17 16 19 20 19 19 17 17 17 18
21 20 18 17 17 14 14 13 13 12 12 13 15 16 14 13 14 14 15 17 17 15 12 11 10 5 4 7 8 8 6 6 6 5 4 5 7 9 16 18 18 19 20 20 21 22 22 23 24 25 24 24 24 24 23 24 23 24 25 25 25 24 24 24 22 22 20 21 19 18 17 18 18 16 15 15 16 17 18 18 19 18 13 13 14
18 16 14 12 12 12 11 11 11 14 11 12 13 12 11 11 11 13 14 16 13 13 13 12 12 10 8 9 9 6 6 3 5 5 4 4 6 9 14 15 17 18 19 21 22 22 22 23 23 24 24 24 24 24 24 24 24 24 20 25 23 23 22 22 23 22 23 22 21 18 16 18 16 15 15 16 16 17 17 16 17 15 14 13 10
15 13 10 9 10 12 12 12 13 12 13 12 11 12 11 11 11 12 13 11 12 12 11 12 6 8 8 7 3 5 9 3 8 9 6 4 12 15 15 16 16 19 21 22 22 22 23 25 25 25 25 24 24 24 24 24 23 24 24 23 23 23 20 25 19 19 17 19 19 17 16 17 16 15 15 16 16 16 16 15 16 17 16 14 14
9 8 9 9 7 13 14 14 12 12 11 10 11 11 8 10 9 10 11 12 11 10 10 11 8 8 7 5 5 4 5 8 10 11 11 13 14 14 15 17 18 20 20 21 22 22 23 25 25 25 25 25 25 25 24 24 24 24 24 24 24 22 23 20 21 19 19 19 18 16 15 14 13 14 15 16 17 16 15 13 14 15 16 16 15
11 11 9 10 13 14 13 11 12 12 11 9 9 8 8 9 9 10 11 12 11 10 9 9 8 8 6 3 5 8 6 7 7 9 11 12 14 14 16 18 20 21 22 21 22 22 23 24 26 25 25 25 25 25 24 24 24 24 24 22 23 24 23 20 19 19 19 18 17 16 14 13 12 12 14 15 16 15 15 15 14 13 14 12 10
12 12 9 9 12 15 13 14 12 10 7 10 9 9 6 9 10 9 10 10 10 9 8 10 11 11 10 11 6 7 5 5 5 7 10 11 12 14 16 18 19 20 22 21 21 22 23 24 24 23 23 24 25 25 24 24 24 25 24 24 23 22 21 19 18 18 19 17 15 14 13 10 10 13 14 14 9 11 13 12 12 12 13 13 15
12 12 12 12 13 15 14 13 12 13 11 8 11 8 10 11 8 8 8 8 8 7 8 7 10 10 10 12 11 9 7 6 5 9 9 10 11 13 15 18 19 19 20 21 21 22 23 22 22 23 23 24 24 24 25 24 24 24 24 24 24 22 22 21 20 19 18 16 14 14 13 9 7 10 11 7 12 12 12 13 13 14 15 15 16
12 12 12 12 14 14 14 13 12 12 11 11 11 9 11 13 12 12 11 10 11 9 7 5 5 5 10 9 11 7 10 10 6 9 10 11 12 12 14 17 19 19 19 19 21 22 22 22 22 22 23 24 24 25 25 24 23 24 24 24 24 23 21 20 19 19 17 16 15 13 11 8 5 7 9 10 11 12 14 15 15 14 16 17 18
13 14 14 16 16 16 14 14 15 15 13 12 13 15 13 14 13 13 11 11 10 8 7 6 8 9 10 12 12 12 12 10 10 10 11 12 13 13 15 17 18 19 19 20 21 22 22 22 22 24 23 24 23 22 24 24 23 22 23 23 23 22 21 20 19 18 17 16 15 12 10 8 5 5 6 7 10 13 14 14 14 16 17 15 18
13 15 15 17 16 16 17 16 15 13 14 12 12 14 15 15 14 13 12 11 12 9 9 10 11 11 13 12 12 12 13 13 11 11 12 13 13 14 15 16 17 18 20 20 21 22 22 23 22 23 24 25 24 24 25 24 21 21 21 22 21 21 20 19 18 17 16 14 14 11 10 8 7 6 8 8 8 10 13 12 13 13 17 17 18
15 16 17 17 17 17 16 16 14 14 13 14 14 15 15 16 16 15 13 11 10 10 11 12 12 12 11 12 12 13 13 13 13 13 13 13 14 15 15 16 17 17 18 20 21 21 23 23 24 24 24 25 24 25 25 23 22 21 20 19 19 20 18 15 14 14 15 13 12 10 9 9 10 9 8 11 11 11 12 12 12 13 14 16 17
18 19 18 18 18 18 17 16 15 15 17 17 16 16 15 16 15 13 13 13 12 12 12 12 12 12 12 12 13 12 13 13 13 14 14 14 14 15 15 16 17 17 18 19 20 23 22 23 24 25 24 24 24 24 25 25 24 23 21 19 19 17 16 16 13 12 13 11 10 9 9 9 10 10 12 14 14 15 15 16 15 14 15 18 19
18 19 19 18 17 17 17 16 17 13 17 17 17 16 16 15 14 13 13 13 14 14 14 13 13 13 13 12 13 13 14 14 14 14 14 15 15 15 15 15 16 17 17 18 20 22 23 24 25 25 26 25 25 25 24 25 24 23 22 21 21 21 22 17 13 14 13 12 10 11 12 12 12 13 13 13 13 15 16 18 16 17 17 19 20
20 20 20 20 19 18 16 17 16 17 16 16 17 18 16 16 15 14 14 14 14 14 14 13 13 13 13 12 13 14 14 15 15 15 15 16 16 16 16 16 15 17 17 18 20 21 23 24 24 25 24 23 24 24 25 24 25 23 22 20 23 24 21 20 16 16 15 16 13 13 13 14 15 15 15 14 17 16 17 16 17 19 19 18 20
21 19 19 19 19 18 17 17 17 17 17 17 17 17 16 15 15 15 15 15 15 14 14 14 13 13 13 13 14 15 15 16 16 16 16 16 17 16 17 17 16 17 17 17 18 19 21 23 23 23 23 23 24 24 24 24 24 25 22 25 24 23 23 21 20 20 17 13 14 14 15 15 15 17 17 17 17 18 19 20 18 19 19 22 20
20 20 20 20 20 18 18 18 18 17 17 17 17 17 16 16 15 15 15 16 15 16 15 15 14 14 13 14 14 14 15 16 16 17 16 16 16 17 17 17 17 17 17 17 18 18 19 21 24 23 22 22 23 24 23 23 21 23 25 26 25 24 23 22 22 19 20 14 14 15 17 17 15 18 17 19 19 20 21 21 19 19 22 22 22
Wind_Speed
9 9 8 9 10 9 9 11 11 9 9 10 9 9 8 8 8 8 8 8 8 9 9 10 10 9 9 9 9 8 8 7 6 5 5 5 5 4 3 3 3 3 3 3 2 2 2 2 1 1 1 2 1 1 1 1 1 2 2 3 4 5 5 7 10 13 8 5 7 8 9 10 10 9 11 9 9 9 9 9 9 8 7 7 6
10 9 9 9 11 11 11 10 9 9 10 9 10 9 9 8 8 8 9 9 9 10 11 9 9 10 10 10 9 8 8 8 7 6 6 7 6 4 3 3 3 3 3 4 4 2 3 3 3 2 2 3 3 3 2 2 2 2 2 2 4 5 5 7 9 10 13 6 7 7 8 7 10 8 8 9 9 9 10 10 9 8 7 7 7
7 7 8 9 12 12 11 11 10 10 10 9 10 10 9 9 9 10 9 9 9 9 10 10 10 11 10 10 10 9 9 9 7 7 7 7 6 5 4 3 3 3 3 4 4 4 4 4 4 4 3 4 4 4 3 3 3 3 3 3 4 5 6 7 8 10 13 11 8 9 8 8 8 10 10 9 10 10 12 11 10 8 8 7 7
4 5 7 9 11 11 11 10 10 10 10 10 10 10 9 8 9 10 9 8 9 8 9 10 10 11 11 11 10 10 10 9 8 7 7 7 6 6 5 3 2 1 2 3 4 4 5 5 5 5 5 5 5 5 4 4 4 4 4 4 4 5 6 7 8 9 11 13 10 10 9 10 9 9 9 9 10 10 10 10 10 11 10 8 8
3 6 9 11 11 10 11 10 10 11 11 9 10 9 9 8 8 10 9 9 9 8 8 9 10 11 10 12 11 10 10 9 8 7 6 6 6 5 4 3 1 1 1 2 2 4 4 5 6 6 6 6 6 6 5 6 6 6 5 5 5 5 5 6 8 8 10 12 12 10 10 10 10 10 9 10 9 9 9 10 10 10 10 9 8
5 5 8 10 10 10 10 10 11 11 10 9 9 8 8 8 9 9 10 12 10 9 10 9 10 11 11 11 11 10 9 8 8 7 7 6 5 4 3 2 1 1 2 3 4 4 5 6 6 6 6 7 7 6 7 8 7 7 8 7 7 6 6 7 7 8 10 11 12 11 8 9 9 9 9 9 9 10 9 9 10 10 10 9 7
5 3 5 8 9 10 10 11 9 9 9 9 7 8 9 9 9 9 7 3 5 7 8 10 9 10 10 10 10 10 9 8 8 7 6 6 5 4 2 1 1 1 2 4 4 5 6 6 6 7 7 7 8 8 8 8 7 8 8 8 8 8 8 8 8 9 9 10 11 10 10 8 8 9 8 8 10 10 10 10 10 8 8 8 8
5 6 5 4 7 10 10 9 9 8 7 7 8 8 8 9 10 8 6 9 8 9 10 11 8 8 9 9 9 8 9 8 8 7 6 5 4 3 2 1 2 2 3 4 4 5 6 6 7 7 7 8 8 8 8 8 8 9 9 9 9 9 9 8 8 8 9 9 10 10 9 8 8 8 7 7 9 8 7 8 9 8 8 8 8
7 6 5 5 6 7 9 9 9 8 7 7 8 9 10 10 8 8 12 12 10 9 6 6 6 7 8 9 9 8 8 7 6 6 6 5 3 3 2 2 2 2 3 4 4 5 5 6 6 6 7 9 11 11 11 11 10 10 10 9 10 10 11 10 10 10 9 9 9 9 9 9 8 8 8 6 6 8 8 9 10 10 10 10 9
7 7 6 6 6 7 7 8 8 9 8 9 9 10 9 10 10 11 10 9 8 8 9 8 9 9 9 9 9 8 7 5 6 8 5 4 4 3 2 1 1 1 2 3 4 5 5 6 6 8 9 10 11 12 12 13 13 12 11 11 11 11 11 12 11 10 10 11 10 9 10 10 8 8 8 8 7 8 9 8 10 10 10 10 10
9 8 8 7 7 7 6 7 7 9 9 9 9 10 10 9 9 9 9 9 11 11 10 11 9 9 9 9 9 7 6 6 9 9 8 5 4 3 2 1 0 1 2 4 5 6 6 7 7 8 9 9 9 9 10 12 13 14 15 15 14 13 12 13 13 12 12 11 10 10 10 11 10 9 9 8 7 8 9 8 8 9 9 9 10
8 9 8 9 8 7 6 6 8 9 9 9 10 10 8 8 9 9 9 11 9 8 9 9 8 8 8 8 8 7 6 9 10 9 8 7 3 2 2 0 1 1 2 4 5 6 7 7 7 6 7 8 10 11 11 11 11 12 14 14 15 16 16 14 13 12 12 12 13 12 11 11 11 9 8 7 8 8 9 9 8 9 10 10 9
8 8 9 9 9 8 7 7 7 8 9 9 8 8 8 9 9 10 11 9 9 10 10 10 9 9 9 10 8 8 8 11 10 10 9 8 6 3 2 1 1 2 3 4 5 6 7 7 7 6 6 9 9 9 10 10 10 11 12 13 15 17 17 18 18 16 14 15 14 14 12 11 13 12 10 10 9 11 10 10 9 9 9 10 10
7 9 9 9 9 9 9 8 8 7 8 8 8 8 8 9 9 10 9 10 11 10 11 12 11 10 9 9 8 7 8 11 11 10 9 8 7 5 2 2 2 2 3 4 4 6 7 7 8 8 8 9 9 9 9 10 11 11 11 10 11 11 13 16 19 20 19 16 16 16 15 14 14 13 13 12 12 11 11 12 11 12 12 12 12
9 8 9 10 9 9 9 8 9 8 7 7 7 7 8 7 9 8 8 11 11 11 11 11 9 8 8 7 7 6 6 11 10 10 9 8 8 5 2 2 2 3 3 4 5 6 7 7 8 9 9 9 8 9 11 11 11 11 13 13 13 13 13 13 13 12 12 13 16 17 16 16 15 15 14 13 13 11 10 11 11 10 10 11 12
9 9 9 9 9 9 9 9 8 9 8 7 7 8 8 10 10 8 7 6 6 8 7 9 10 9 8 8 8 8 7 12 10 10 9 8 8 4 3 3 3 3 4 4 5 6 6 7 9 10 10 10 11 9 9 10 12 13 13 14 14 13 12 12 13 11 14 14 15 15 14 14 12 12 12 12 12 12 13 13 12 11 12 14 14
10 10 10 10 9 9 9 9 8 9 8 8 8 9 9 9 7 8 9 8 10 10 10 9 9 9 9 8 7 6 6 9 10 10 9 8 6 3 3 3 4 4 5 5 6 6 6 7 9 10 11 11 11 9 9 9 13 15 15 15 15 14 14 12 12 13 13 15 18 19 20 20 19 17 15 14 14 15 15 15 15 12 14 15 13
10 10 10 10 10 10 9 9 9 10 10 9 9 8 8 7 8 8 11 11 10 9 9 8 7 8 8 7 7 7 6 7 9 8 8 9 6 3 3 4 5 6 6 6 6 7 8 11 12 11 11 12 12 10 9 10 15 16 16 16 16 15 14 12 12 11 13 14 15 17 18 18 17 18 18 18 17 13 14 18 15 11 14 13 14
10 10 10 10 10 10 10 9 9 10 11 10 8 9 9 8 7 7 7 5 5 5 5 7 7 6 6 6 6 6 5 7 10 9 9 8 6 4 4 5 6 6 6 7 7 7 8 9 11 12 13 14 14 13 13 13 15 15 16 16 17 17 14 14 13 14 13 13 13 13 13 15 15 16 17 19 20 18 18 19 16 15 16 13 13
10 10 10 10 10 10 9 9 9 11 12 9 7 7 6 7 8 8 8 9 10 9 6 6 7 5 4 4 5 5 4 4 7 9 9 8 8 5 4 5 7 7 7 8 9 9 9 10 9 10 12 13 13 13 13 12 14 16 16 16 17 17 14 14 14 14 16 15 15 14 15 14 14 14 14 14 14 16 18 17 17 16 17 14 13
10 10 10 10 11 11 9 9 10 11 12 8 7 8 7 8 8 7 7 7 9 7 7 6 5 5 4 3 3 4 3 4 5 7 6 6 5 4 5 6 7 7 8 9 9 10 10 10 9 12 10 8 10 12 13 14 15 16 16 17 17 17 16 16 17 18 17 17 16 15 14 13 13 13 14 14 14 14 15 16 15 15 15 15 14
10 11 12 12 11 10 10 9 9 10 8 6 8 8 8 7 7 9 10 10 9 9 8 8 6 5 2 2 1 1 1 2 3 5 3 3 4 4 5 7 6 8 9 9 10 10 11 11 14 14 10 10 11 13 16 18 19 17 18 20 20 19 18 18 17 16 15 15 14 14 14 14 13 13 13 14 14 15 16 16 15 16 16 16 16
12 13 13 13 12 11 10 10 10 6 7 9 11 10 9 10 8 6 8 8 8 7 8 6 5 4 2 2 3 4 4 3 2 4 4 4 6 6 7 7 7 7 8 10 10 11 11 14 14 11 11 14 18 20 21 22 20 19 21 19 19 19 19 16 16 15 14 13 14 15 15 14 14 14 13 13 13 14 15 14 14 15 15 15 16
12 12 12 12 11 10 9 10 8 6 8 8 8 10 9 10 8 8 8 7 6 7 5 5 4 4 4 4 4 4 3 2 3 4 5 6 6 7 8 8 8 7 9 10 10 11 14 14 13 16 19 21 22 22 21 20 19 22 21 22 21 20 17 15 15 14 14 14 14 15 15 15 15 15 15 14 13 13 13 13 13 14 14 14 15
12 11 11 11 10 9 9 8 8 8 9 11 12 11 10 8 9 6 8 7 6 6 4 4 5 4 4 2 1 1 1 0 1 3 5 6 7 7 8 8 8 9 9 9 11 13 14 16 18 19 20 20 22 22 20 20 20 19 19 18 19 14 14 14 13 13 13 13 13 14 15 15 15 15 15 14 14 13 13 12 12 12 13 14 14
13 12 11 10 9 8 7 9 8 8 9 8 10 10 10 9 9 6 6 6 6 6 5 4 3 3 2 1 0 1 2 2 3 3 1 2 4 3 5 7 8 8 10 12 13 14 16 17 18 19 18 17 15 14 14 14 16 18 19 19 15 14 13 13 13 13 13 13 13 14 14 14 14 14 14 13 13 13 11 11 11 11 11 11 12
13 11 10 9 8 8 11 10 9 9 9 6 7 7 7 7 8 8 6 6 6 5 4 2 2 2 3 2 1 2 2 3 3 4 5 5 6 6 6 7 8 9 10 10 11 12 13 14 14 16 16 18 18 18 17 16 14 13 11 11 11 11 11 12 13 12 12 13 14 14 14 14 13 12 13 12 12 11 11 10 10 11 10 11 12
13 11 10 8 8 11 11 13 12 8 8 9 8 6 5 6 7 8 8 7 8 6 3 3 3 3 2 2 1 1 2 3 4 5 6 6 6 6 6 7 9 9 10 10 12 13 13 13 12 10 11 11 11 10 11 11 11 11 11 11 11 12 14 15 15 14 14 14 14 14 13 13 13 13 11 11 12 11 10 10 10 11 10 10 11
13 12 9 8 10 9 11 13 10 11 11 10 10 9 9 6 6 5 6 7 7 7 6 4 3 3 3 3 2 2 3 3 5 5 4 5 5 6 7 7 8 9 9 12 13 11 10 10 9 10 10 11 11 11 11 11 11 11 12 12 12 12 12 11 10 12 12 11 11 11 11 9 12 10 10 10 11 10 9 10 11 10 10 10 11
13 10 8 8 9 10 10 9 9 10 9 8 9 7 9 10 4 6 4 2 6 7 5 3 4 3 4 4 4 3 2 4 4 4 4 4 5 5 7 8 9 9 12 14 12 9 9 9 10 10 11 11 11 12 12 11 12 12 11 12 11 11 12 12 12 12 10 10 10 10 11 10 11 10 10 11 10 9 10 10 10 10 10 11 10
9 7 9 9 11 11 9 9 9 9 8 8 8 7 7 8 15 11 8 8 10 14 15 13 11 8 7 5 5 4 3 1 1 3 4 5 6 6 7 8 9 10 12 10 8 8 9 10 11 11 11 11 12 12 12 12 12 12 11 11 10 11 11 11 11 10 10 10 10 10 11 11 12 11 12 11 10 9 8 8 9 9 10 10 10
10 10 10 10 12 11 10 10 10 9 7 9 8 8 9 8 6 13 13 9 10 11 12 12 11 11 9 7 5 4 4 2 2 3 3 5 7 7 8 9 10 11 12 12 7 8 9 10 10 11 11 12 12 12 12 12 12 12 12 12 11 10 10 11 10 9 10 10 10 10 10 11 11 11 10 10 9 9 9 9 9 9 9 10 10
10 10 10 12 10 12 10 9 8 6 8 8 8 9 8 8 7 6 9 13 12 10 11 12 12 11 9 8 7 6 4 1 1 2 4 6 7 8 9 8 9 10 11 8 8 9 9 10 11 11 12 12 12 12 11 12 12 12 12 12 12 11 10 12 12 11 10 11 11 10 10 10 9 9 9 8 8 10 9 9 9 9 9 9 10
13 12 11 11 11 8 9 9 8 9 8 9 9 11 11 10 9 9 8 7 8 10 9 8 9 10 8 7 7 7 5 3 2 2 3 5 6 8 9 6 8 6 5 7 8 9 9 10 11 12 12 12 12 12 12 12 12 13 12 12 12 12 12 12 12 11 11 10 10 9 9 9 8 8 8 7 8 8 8 9 9 9 10 10 10
12 13 14 11 10 10 8 8 9 8 8 8 8 9 9 9 9 9 8 8 7 7 6 4 3 2 4 6 5 6 5 3 3 3 4 6 7 9 9 5 7 8 8 9 9 10 10 10 11 11 11 11 11 11 11 12 12 12 13 13 12 12 11 11 11 11 10 10 10 9 8 9 8 8 8 7 8 9 9 9 9 8 8 8 9
12 11 10 10 9 7 7 6 6 6 6 6 7 8 7 6 7 6 7 8 8 6 5 4 4 4 3 5 5 5 5 5 5 4 3 4 6 8 6 7 8 8 8 8 9 10 10 10 11 12 12 12 11 11 11 11 12 12 12 12 12 12 12 11 11 11 10 10 10 9 9 9 9 8 8 7 8 8 8 9 9 9 7 6 7
9 9 8 7 7 7 6 5 5 7 8 6 6 5 5 5 5 5 6 7 5 5 5 4 4 3 5 3 4 5 5 2 3 4 4 4 6 3 5 6 7 8 8 9 9 10 11 11 11 12 12 12 11 12 11 11 12 12 12 12 11 12 11 10 11 11 11 10 10 9 9 9 8 8 7 8 8 8 8 8 8 7 7 6 5
9 7 5 6 6 6 6 5 7 9 7 5 5 5 5 5 5 5 5 4 5 5 4 5 4 2 2 2 2 2 1 3 7 8 6 2 3 6 6 6 7 8 9 9 9 10 11 11 12 12 12 12 12 12 11 11 11 12 12 12 12 11 14 13 11 10 9 9 9 8 8 8 8 7 6 8 8 8 8 7 8 8 7 7 7
5 7 8 7 5 6 6 6 6 5 5 5 4 5 3 4 3 3 4 4 4 4 4 4 2 2 2 1 1 1 2 1 3 3 3 3 5 6 6 7 7 8 9 9 10 10 10 11 12 12 12 12 12 12 12 12 11 12 12 12 11 11 11 9 9 9 10 9 9 8 7 7 6 6 7 8 8 8 7 7 7 7 7 8 7
5 4 6 8 5 5 6 5 6 6 5 3 4 3 3 3 3 4 4 5 5 4 3 3 2 2 1 0 0 1 1 2 2 2 3 5 6 6 6 7 7 8 9 10 10 10 11 11 11 12 12 12 12 12 12 11 12 12 12 11 11 12 11 10 9 9 9 9 8 7 7 6 6 6 6 7 7 7 7 7 7 6 7 5 4
5 5 6 5 8 7 7 7 5 4 2 4 3 3 2 3 4 3 3 4 4 3 2 3 4 3 3 4 4 4 1 1 1 1 2 4 4 5 6 7 8 8 9 9 10 10 11 11 11 11 11 12 12 12 12 12 12 12 12 12 11 11 11 10 9 9 9 9 8 7 6 5 4 5 6 6 6 6 6 6 6 5 5 5 6
5 5 5 5 6 7 6 6 5 6 5 3 4 2 4 4 3 2 3 3 3 2 2 2 3 3 5 7 6 6 1 1 1 2 2 3 4 5 5 6 7 8 8 9 10 10 11 11 11 11 11 11 11 12 12 12 11 11 12 12 12 11 11 10 10 10 10 8 7 7 6 4 2 4 5 6 5 5 5 6 5 6 6 7 7
6 5 5 5 6 6 6 5 5 5 4 4 4 5 5 5 5 5 4 3 4 3 2 1 1 1 2 4 5 4 3 2 3 2 3 3 4 5 6 6 7 8 8 9 9 10 10 10 11 10 11 11 11 12 12 11 11 11 11 12 12 11 11 10 9 9 9 8 7 7 6 4 1 2 2 3 4 5 5 6 6 6 6 7 8
6 6 6 7 7 7 7 6 7 6 5 6 7 6 6 6 5 5 4 4 4 3 2 2 1 2 2 3 4 5 4 3 3 3 4 4 5 5 6 6 7 8 8 9 9 10 10 10 11 11 12 11 11 12 12 12 11 11 11 11 11 11 11 10 10 9 9 8 7 6 5 3 2 1 2 2 3 5 6 6 6 7 8 7 8
6 6 7 7 7 7 7 7 7 5 6 6 5 5 6 6 5 5 5 4 4 3 2 2 2 3 3 4 5 5 4 4 4 4 5 5 5 6 6 7 8 8 8 9 9 10 11 11 11 12 12 12 11 12 12 12 11 10 10 11 11 11 10 10 9 9 8 7 6 5 4 3 3 2 3 3 3 4 5 5 6 8 8 8 9
7 7 8 8 8 8 7 7 6 6 5 4 5 5 5 6 6 7 5 4 4 3 2 3 3 4 4 4 4 5 5 5 5 5 5 6 6 6 6 7 7 8 8 9 10 11 11 11 12 12 12 12 12 12 12 12 11 11 10 9 9 10 9 8 7 7 7 7 5 4 3 3 4 4 5 4 4 4 6 6 6 6 6 6 8
9 9 8 8 8 8 8 7 6 6 6 6 7 7 6 6 6 6 6 5 4 3 3 4 4 5 5 5 5 5 5 5 5 5 6 6 6 6 7 7 7 8 8 9 9 11 11 12 12 13 13 13 12 12 12 12 12 11 10 10 9 9 8 8 6 6 6 6 5 3 4 4 4 5 6 7 7 6 6 6 6 7 7 7 8
8 9 9 8 8 8 7 7 7 7 7 7 7 7 7 6 6 5 4 4 4 4 4 4 5 5 5 5 5 5 5 5 5 6 6 6 6 7 7 8 8 7 8 8 9 10 11 11 12 12 12 13 13 12 12 13 12 11 11 10 10 11 13 13 7 7 6 5 5 5 5 5 5 5 5 6 6 6 8 8 7 7 8 9 8
9 9 9 9 9 8 7 7 7 6 6 6 7 8 7 7 6 5 5 5 5 5 5 5 5 5 5 5 5 6 6 6 6 6 6 7 7 7 7 8 8 8 8 8 9 10 11 11 12 12 12 12 12 12 13 12 13 12 12 10 13 19 17 16 10 8 10 6 6 6 7 7 8 8 7 7 7 7 8 8 9 10 9 9 9
10 9 9 9 9 8 8 7 7 7 7 7 7 8 7 7 7 6 6 6 6 6 6 6 5 5 5 5 6 6 6 6 7 7 7 7 7 7 8 8 8 8 8 8 8 9 10 11 12 12 12 12 13 12 12 12 12 13 11 13 19 18 18 16 15 15 9 6 7 6 7 7 8 7 7 7 8 9 9 8 8 7 8 10 10
10 9 9 9 9 8 8 8 8 8 8 8 8 8 8 7 7 6 6 6 6 6 6 6 6 5 5 5 5 5 6 7 7 7 7 7 7 8 8 8 8 8 8 8 8 8 9 10 11 11 11 11 11 11 11 11 10 11 16 21 19 19 18 17 13 15 15 10 7 7 7 8 8 7 8 9 8 9 11 11 10 9 9 10 11
Wind_Direction
191 198 190 202 204 206 196 213 211 206 199 196 202 202 197 190 191 185 172 183 174 175 176 173 170 167 160 157 154 152 148 146 142 136 123 116 106 103 99 73 57 61 48 62 62 33 14 341 311 295 293 288 312 290 283 302 270 262 270 269 271 266 271 273 277 284 287 277 291 297 305 307 296 295 296 297 299 298 299 298 303 299 294 285 286
202 200 196 199 201 205 212 219 207 206 206 202 204 203 195 193 189 179 186 185 178 180 179 171 170 168 164 160 158 156 156 152 151 147 139 132 127 123 106 76 46 44 29 23 22 20 350 341 335 328 305 289 286 289 302 294 275 265 255 273 279 275 269 277 278 284 291 297 294 302 304 303 295 300 297 304 302 302 300 299 294 296 298 302 294
210 205 202 205 208 209 214 217 210 209 209 209 208 206 200 194 183 186 192 183 184 184 177 171 171 170 165 162 161 161 161 157 156 152 143 139 134 128 118 95 60 33 18 10 357 353 341 338 331 329 312 301 295 288 289 281 288 279 277 271 272 273 272 268 275 280 288 295 305 301 302 311 305 305 303 297 300 300 294 288 293 298 302 299 295
254 231 228 223 218 217 220 223 214 212 213 214 213 209 200 195 190 194 194 180 181 184 176 172 169 169 165 164 164 162 162 157 158 154 145 138 130 122 120 113 99 65 13 352 344 337 335 327 329 322 316 306 304 303 292 289 284 286 280 272 261 262 268 269 266 275 283 289 294 297 303 305 299 300 305 300 292 288 285 287 284 285 291 300 301
254 232 234 234 231 227 227 227 223 217 217 216 213 209 204 197 191 197 189 186 186 173 175 173 170 170 167 167 165 163 162 159 154 147 136 126 118 117 114 107 92 17 339 325 311 316 315 310 311 313 310 304 301 295 298 296 295 290 286 283 273 265 265 266 271 273 279 283 289 291 294 292 294 298 300 301 299 291 288 285 287 286 286 293 296
347 273 246 236 233 230 233 234 233 231 227 224 217 213 207 203 198 200 193 189 178 176 174 176 176 172 169 165 163 161 159 157 149 137 129 123 118 113 111 105 68 334 319 314 316 311 304 303 300 299 299 296 296 294 291 289 289 284 283 283 283 280 270 269 265 269 273 279 284 289 284 285 291 291 296 294 300 302 298 293 287 282 280 280 289
359 336 270 257 251 243 238 238 235 230 226 223 211 206 206 204 201 204 195 167 139 179 181 176 176 170 164 159 158 155 150 141 131 126 123 118 113 109 103 85 351 329 321 322 315 309 302 299 295 292 289 290 289 288 288 287 281 280 278 278 275 275 273 269 268 265 266 274 279 279 284 281 280 288 289 297 295 289 290 291 284 278 275 277 280
357 350 346 300 266 259 256 254 250 241 228 216 210 204 201 199 202 185 138 142 183 202 186 178 165 158 154 156 149 143 137 133 128 126 121 118 115 108 90 41 359 342 337 326 320 311 307 301 297 295 290 288 289 291 290 285 285 282 280 280 279 278 275 271 266 262 262 263 267 279 281 287 285 274 280 285 291 287 279 294 297 298 291 286 281
350 346 333 317 300 282 269 259 253 249 234 222 209 205 204 203 187 168 186 188 187 173 141 111 137 151 153 146 143 141 137 133 136 136 131 126 119 107 82 51 8 350 336 330 322 316 311 309 300 297 300 295 290 280 278 281 284 280 275 275 276 277 276 277 275 272 268 264 263 263 269 273 275 282 279 274 281 293 310 308 296 292 287 286 280
340 335 325 318 307 296 284 268 257 247 234 220 214 209 203 198 191 190 193 185 151 127 137 151 169 160 155 149 140 134 130 127 121 115 104 120 121 104 101 87 46 351 329 325 323 321 316 309 301 293 280 272 268 265 261 258 256 264 274 277 275 273 274 274 272 271 273 271 265 266 266 264 266 270 275 278 280 283 284 287 288 295 298 290 283
332 327 320 316 312 304 291 280 265 250 238 227 219 214 207 198 192 185 172 158 158 162 160 160 158 158 152 146 140 132 129 124 134 130 121 112 114 113 108 114 10 313 319 327 325 326 321 316 308 300 292 286 279 268 261 254 251 252 255 258 263 269 271 267 268 269 268 266 262 259 260 266 268 268 270 278 277 277 281 283 282 286 287 293 292
321 318 315 313 309 307 299 287 273 261 235 228 222 216 199 186 185 177 164 165 165 150 146 148 143 139 138 138 136 140 134 130 146 143 143 146 138 130 144 154 281 307 326 326 328 326 322 317 309 304 296 298 299 294 281 267 255 249 248 249 249 247 246 256 266 266 262 265 265 259 260 261 268 266 270 274 278 279 275 275 274 277 278 277 277
311 309 309 311 308 307 302 284 265 256 242 226 219 206 193 184 178 169 170 159 141 155 156 144 144 139 141 146 149 149 143 150 157 154 152 151 152 201 164 189 268 306 320 319 321 321 320 317 312 304 300 292 289 291 295 294 287 276 265 255 248 242 243 243 243 251 264 266 264 264 259 266 267 266 262 270 277 276 276 270 267 267 268 271 273
306 306 305 303 301 301 302 293 275 259 251 223 211 202 187 183 175 170 160 160 165 157 149 149 146 147 150 155 154 154 149 162 162 159 152 159 156 197 184 205 255 282 298 309 307 312 314 313 311 307 305 304 300 297 300 302 301 300 293 289 285 271 248 231 231 237 244 256 260 262 263 264 265 267 269 271 269 267 269 270 271 270 266 266 274
304 301 298 296 296 296 297 294 283 275 254 222 204 190 180 171 166 164 165 169 164 155 150 141 140 142 147 145 148 153 155 162 165 161 161 168 161 202 196 207 240 262 270 284 287 293 301 301 302 301 302 302 301 305 303 301 303 300 296 291 288 283 280 279 270 258 247 242 253 257 262 262 265 267 266 264 261 263 266 274 279 278 287 292 283
296 292 288 288 291 296 295 290 281 269 251 212 193 183 175 171 171 164 157 150 135 130 129 137 147 154 154 150 152 164 166 171 169 169 168 171 162 206 199 228 249 265 279 283 287 291 293 297 301 300 298 295 292 285 282 294 297 298 294 291 288 284 279 278 280 276 268 268 264 262 261 265 272 273 270 266 263 265 267 267 267 262 264 264 260
292 288 284 288 292 292 291 284 274 261 237 200 190 182 176 176 163 159 155 156 152 154 152 152 152 152 156 161 164 165 164 181 178 177 176 162 177 218 219 248 259 268 274 283 287 283 279 286 295 296 293 287 287 281 278 276 294 294 293 291 288 286 283 281 273 269 261 255 256 260 266 269 269 266 260 255 254 264 270 270 262 261 258 256 255
281 280 281 285 285 285 283 280 269 254 233 204 193 186 175 165 166 171 166 162 164 159 145 141 143 147 151 163 171 168 175 172 183 187 181 175 201 232 258 267 273 279 282 276 277 280 274 254 262 282 285 284 283 278 274 274 291 292 291 291 287 285 284 285 284 278 272 260 251 248 251 255 255 253 252 251 247 238 250 254 257 257 253 251 256
276 278 278 278 278 277 276 274 264 250 232 212 194 177 173 167 153 149 156 126 78 76 112 129 131 143 162 165 165 164 171 182 188 191 190 184 191 240 263 275 278 283 292 294 290 288 287 276 255 259 275 283 284 281 277 278 287 288 289 288 285 283 282 285 284 285 284 282 276 269 256 243 242 250 254 242 235 231 240 249 251 247 250 250 249
279 279 275 271 269 267 266 263 256 246 231 208 185 174 135 128 151 157 154 150 145 151 149 131 139 155 153 160 179 194 178 181 182 194 200 199 202 245 272 281 287 294 298 301 300 296 292 290 282 255 244 254 265 269 270 265 277 285 285 282 282 280 284 283 282 283 282 282 280 278 275 275 273 268 265 259 247 237 239 241 241 242 245 246 244
277 275 272 268 265 263 263 259 249 239 227 195 169 161 155 155 148 148 142 128 125 126 128 133 137 149 167 180 192 202 203 198 172 184 211 222 221 220 274 281 288 296 301 301 298 299 299 298 299 299 304 296 285 279 275 273 274 281 280 277 274 281 288 283 282 280 277 276 274 273 271 269 265 261 257 253 251 248 243 238 238 238 240 241 240
272 277 276 272 268 264 265 259 247 235 210 150 161 160 158 146 147 144 141 134 127 130 121 142 152 147 125 158 180 242 199 220 254 188 214 274 285 262 278 282 294 300 299 295 297 297 299 302 302 310 311 295 290 287 282 279 275 276 275 273 275 277 275 275 277 276 274 273 270 268 266 264 262 258 255 253 251 248 247 245 241 240 239 241 240
277 278 276 273 271 269 266 256 240 209 181 181 169 160 154 146 129 108 114 118 121 117 146 150 139 126 129 171 204 221 226 217 219 291 291 277 278 276 262 271 287 281 289 294 297 296 297 300 298 303 311 303 291 283 278 275 274 273 271 270 269 268 269 271 269 268 265 263 262 263 261 258 256 256 252 250 247 246 247 245 245 244 243 243 243
275 273 271 269 268 268 261 250 224 160 149 143 135 130 133 130 116 122 117 101 116 131 105 107 137 163 185 194 197 206 189 236 169 205 286 297 291 279 278 272 271 282 295 293 292 297 299 296 301 310 296 285 278 274 274 272 276 277 274 271 269 269 272 271 267 262 258 257 256 255 254 252 251 250 250 249 250 248 248 247 247 246 248 249 247
267 263 263 264 261 260 248 212 174 152 149 144 132 128 118 112 100 79 103 119 133 119 115 150 172 176 178 176 180 165 113 132 293 158 200 258 264 268 267 264 266 263 280 291 297 300 302 299 288 280 278 278 277 277 276 271 264 263 264 266 268 273 269 265 261 258 254 251 250 251 251 249 249 251 251 251 251 250 249 249 249 249 249 248 249
257 254 257 259 259 244 183 157 141 133 130 124 123 122 119 113 115 111 100 113 116 121 141 177 174 146 147 157 100 12 45 17 11 11 4 319 303 282 285 278 279 285 283 290 289 285 280 278 277 274 273 276 282 288 292 290 290 285 278 272 273 268 264 262 259 254 251 251 250 250 253 254 252 250 250 250 249 245 242 242 244 245 244 248 249
248 245 247 250 237 186 154 143 129 122 119 112 107 102 111 118 130 133 119 123 120 116 127 157 155 144 160 147 79 36 22 21 8 2 355 342 331 325 317 313 317 307 303 312 308 304 302 297 295 292 281 277 270 266 268 270 273 275 279 280 278 271 265 260 258 256 253 255 256 256 256 256 257 253 248 240 238 235 234 235 237 241 242 248 248
242 239 235 233 189 169 155 140 136 130 131 123 110 94 98 133 133 138 149 148 137 144 151 144 162 170 133 97 80 49 29 23 16 0 347 338 329 324 328 323 323 323 316 314 315 309 304 299 293 296 303 303 299 304 302 301 296 293 289 285 282 278 275 270 264 263 261 262 264 263 261 259 255 250 245 238 237 236 230 228 231 236 236 241 245
233 231 220 192 171 161 150 153 145 136 129 127 131 144 153 143 120 123 136 149 156 159 151 156 158 115 104 88 73 57 34 14 22 7 332 322 328 337 335 334 328 321 323 319 310 308 305 307 310 307 310 310 309 307 306 305 302 296 291 288 287 285 283 281 271 267 267 264 255 252 254 249 251 245 239 236 234 234 226 227 228 232 232 232 238
227 217 187 166 155 151 151 140 130 128 133 131 120 90 40 56 84 138 157 91 60 98 114 117 116 122 101 78 63 60 39 27 8 315 319 331 335 325 319 311 310 309 310 302 301 310 314 315 316 315 314 313 311 308 305 305 303 299 294 287 283 280 281 280 276 272 269 262 261 259 255 250 246 239 235 237 240 232 227 222 229 223 228 229 233
199 174 159 153 151 148 141 130 127 128 132 127 118 111 105 56 37 34 100 122 99 92 93 95 87 82 105 115 95 60 70 99 286 348 344 342 332 328 324 323 315 310 307 321 321 321 324 324 322 318 315 312 309 308 306 304 300 299 296 293 289 284 280 278 275 276 273 270 264 258 256 251 249 245 240 236 235 234 227 220 224 226 229 229 230
170 162 150 143 143 137 131 121 128 135 119 120 117 124 119 111 90 47 49 78 92 99 103 108 110 107 102 106 116 133 155 90 16 357 348 344 342 338 335 325 317 310 315 305 320 330 332 328 322 318 316 313 310 309 307 304 303 300 300 297 292 288 283 280 276 274 274 273 271 267 262 255 249 243 236 232 230 232 226 227 222 224 227 231 232
134 127 128 127 124 130 134 125 130 121 121 123 130 138 137 130 111 96 57 53 64 86 105 114 120 120 115 103 97 103 106 85 9 16 0 354 338 335 324 310 303 305 314 334 342 328 329 324 321 319 316 313 309 309 306 302 301 300 300 297 294 291 284 280 278 272 271 269 268 267 262 252 241 239 231 227 223 229 228 229 227 221 221 226 231
124 127 128 130 131 131 134 139 141 140 142 148 147 144 149 144 131 123 121 117 91 70 65 81 108 115 113 132 138 126 102 65 45 32 0 351 332 330 323 317 304 293 313 338 337 331 326 323 322 318 316 311 310 309 307 306 305 303 300 296 293 292 289 289 285 279 278 273 269 267 258 248 239 232 228 219 217 221 226 226 227 226 223 224 226
107 105 117 129 128 134 142 139 137 137 137 145 142 139 140 138 134 138 141 139 135 136 139 125 110 99 147 144 113 102 88 64 32 19 10 345 339 324 297 347 358 359 354 351 341 336 330 324 321 318 315 313 312 309 306 306 305 303 302 301 299 296 293 292 288 285 280 278 275 270 264 253 237 229 222 220 214 216 221 224 226 223 221 217 217
112 121 127 127 126 129 134 125 120 121 138 140 137 131 129 130 137 140 136 138 138 139 140 141 145 136 152 114 112 92 88 46 6 352 329 305 306 296 2 4 356 352 342 339 337 332 326 321 319 317 316 315 313 312 309 308 306 303 302 300 299 299 299 296 294 292 288 283 277 269 266 255 243 228 218 213 214 215 218 219 223 224 219 211 208
113 113 114 112 112 115 106 95 111 130 130 116 113 120 119 118 120 130 140 144 144 143 143 145 153 163 203 109 69 94 88 53 295 269 272 279 272 332 17 1 354 345 344 337 332 328 326 327 326 321 318 315 314 313 311 308 307 306 303 302 299 298 296 296 293 292 288 284 280 272 261 254 236 218 211 211 212 214 216 216 220 221 219 221 217
113 116 111 95 97 99 102 104 115 121 114 111 111 118 119 124 129 138 137 136 138 140 147 153 155 140 114 92 63 34 83 198 225 220 215 222 14 14 7 4 355 351 343 339 331 328 328 330 330 325 320 317 315 315 314 311 311 309 307 305 301 299 294 293 290 289 284 278 276 272 264 254 236 216 205 208 211 210 211 211 215 218 215 211 214
78 67 79 90 109 129 127 119 115 105 96 102 113 121 127 128 131 132 134 135 140 147 148 144 134 111 95 62 30 299 244 30 24 19 6 3 11 10 5 0 357 350 345 339 335 330 331 330 331 327 323 322 320 319 318 316 313 310 309 307 304 303 304 305 303 300 298 292 284 277 266 252 231 215 204 207 210 209 207 202 205 212 214 212 205
100 101 97 113 121 110 95 90 94 96 107 117 118 119 125 134 138 137 139 143 150 148 140 134 118 97 70 27 3 322 1 34 24 9 3 358 4 5 4 360 352 349 346 343 338 335 331 332 332 330 326 324 323 321 320 317 315 312 311 311 310 308 306 306 304 302 300 295 287 281 272 257 236 214 200 207 210 206 204 202 202 199 205 196 186
103 99 104 113 112 101 87 88 76 83 90 88 104 118 119 119 125 137 143 141 139 133 125 105 94 82 54 25 7 333 318 35 35 3 1 344 346 357 2 359 353 349 348 344 338 333 330 329 327 325 324 323 323 324 323 321 320 319 318 316 313 310 308 305 304 303 303 301 298 297 292 272 239 207 201 204 201 199 200 199 196 192 187 168 150
105 106 104 102 96 88 88 75 86 82 81 80 82 98 111 114 116 116 113 117 112 108 102 91 89 95 66 25 26 4 344 56 16 354 353 342 342 348 353 356 353 350 346 344 339 335 333 329 326 327 327 326 326 327 326 323 324 323 320 318 317 315 314 314 314 312 311 309 309 310 311 303 255 210 198 192 194 195 188 187 176 170 161 147 143
79 82 83 78 74 75 81 87 81 81 80 85 88 80 80 86 88 90 87 81 74 73 75 78 68 48 49 35 15 16 50 38 12 351 343 338 339 340 350 353 352 349 349 347 345 341 337 332 329 331 332 330 330 330 328 326 323 322 321 321 320 318 316 314 316 318 320 313 314 316 320 321 270 205 180 179 183 179 179 164 154 147 141 142 140
91 86 79 79 80 76 67 72 74 74 76 79 79 73 73 81 78 78 77 69 60 50 45 28 4 352 356 23 24 33 31 20 2 348 341 334 335 338 341 349 350 348 348 350 350 346 340 337 333 335 336 337 335 331 331 331 327 324 324 323 320 319 319 321 321 322 318 314 320 328 335 344 10 145 154 154 154 154 153 146 140 139 138 137 137
79 84 85 81 72 76 72 68 73 84 91 86 76 73 62 64 65 62 59 64 58 52 41 26 18 11 17 21 22 19 16 8 354 348 340 334 331 333 338 340 346 345 347 351 351 348 344 341 337 338 339 339 338 337 337 332 328 325 325 323 320 320 323 322 319 315 312 316 327 337 350 4 16 68 106 107 110 125 122 130 131 133 132 134 135
65 69 71 77 77 74 74 70 63 64 64 67 76 75 72 70 68 63 62 60 54 43 34 24 24 25 24 20 12 9 2 355 352 349 342 337 334 332 334 338 339 341 349 350 352 350 347 343 343 343 341 340 340 339 338 337 334 331 325 322 323 318 315 314 319 322 330 336 339 349 13 31 38 43 67 89 83 92 107 111 119 122 119 118 121
62 65 62 65 69 71 68 65 63 67 74 74 76 77 73 69 67 68 63 56 48 41 32 26 23 24 19 14 6 355 349 348 348 344 344 339 334 330 331 331 333 337 345 349 351 354 351 350 349 349 347 345 343 342 342 343 341 337 334 331 330 329 330 336 336 338 337 336 358 14 21 42 53 67 76 91 96 92 97 107 107 109 108 107 113
58 63 64 66 68 72 75 75 74 71 71 69 70 71 71 68 66 58 52 48 43 37 31 27 25 19 13 9 358 350 349 345 344 344 342 343 340 336 331 328 330 332 335 342 351 354 353 354 353 354 353 352 350 347 347 347 345 341 340 339 342 345 350 349 349 352 348 353 17 32 42 56 64 67 76 81 92 95 100 102 97 98 103 108 106
61 65 70 68 68 66 67 68 67 67 69 73 71 68 64 63 57 53 49 46 46 39 34 28 22 15 10 2 353 349 346 346 346 346 346 342 341 338 333 329 327 330 333 338 344 354 355 360 358 358 355 354 351 350 352 351 351 348 346 343 348 354 358 360 3 4 6 7 26 47 56 63 67 75 75 76 83 84 86 95 99 101 100 98 102
63 65 69 71 71 70 69 69 67 68 65 66 67 67 64 60 56 51 49 47 45 40 35 31 23 16 4 359 356 351 348 347 347 346 345 343 341 337 334 328 329 330 332 331 336 347 355 1 2 1 359 357 357 356 356 356 355 355 353 356 359 1 5 4 7 12 16 19 20 40 53 64 65 71 70 74 81 86 88 87 88 88 92 101 100
66 67 69 70 71 70 68 68 66 64 63 63 64 66 65 63 59 55 51 50 46 42 39 32 25 18 12 6 356 353 350 347 346 344 345 345 344 339 337 334 332 332 329 328 333 344 354 2 7 4 1 359 354 358 359 356 357 358 4 6 6 7 9 12 15 14 22 26 33 36 43 54 67 68 79 80 79 80 89 90 88 91 98 102 105